CZ-6A DEB

Satellite information

Favourite Embed

Satellite Type and Status

DEBRISIN ORBIT

Key statistics

Satellite CZ-6A DEB at a glance.

Uptime

1078

Days in orbit

Revolutions

≈ 14.6

Per day

Orbit

SSO

Sun Synchronous Orbit

Inclination

98.6

Latest

Satellite identification and parameters

Extended collection of information and parameters for CZ-6A DEB.

Object identification

Identified? True

Debris? True

Object name: CZ-6A DEB

International designator: 2022-151XC

Object number (NORAD): 55235

Object ID (CCSDS): 55235

Country: PEOPLES REPUBLIC OF CHINA (PRC)

Current information (Y/N): Y

RCS size: SMALL

Orbital parameters

Period: 98.411 minutes

Inclination: 98.6496 deg

SMA: 7060.822 km

Apoapsis: 740.085 km

Periapsis: 625.288 km

RAAN: 345.4869 deg

Eccentricy: 0.00812914

Argument of periapsis: 298.754 deg

Mean anomaly: 60.5511 deg

Mean motion: 14.63254575 rev/day

Mean motion (dot): 0.00013287 rev/day2

B* drag term: 0.0024638397 1/REarth

Two-line elements (TLE)

Creation date: Oct. 24, 2025, 2:48 a.m.

Reference frame: TEME

Reference center: EARTH

Epoch: Oct. 23, 2025, 4:12 p.m. UTC

TLE line 0: 0 CZ-6A DEB

TLE line 1: 1 55235U 22151XC 25296.67529223 .00013287 00000-0 24638-2 0 9997

TLE line 2: 2 55235 98.6496 345.4869 0081291 298.7540 60.5511 14.63254575154098

Live tracking on map

Real-time ground track for satellite CZ-6A DEB.

In-orbit conjunctions

A list of the most updated potential collisions computed for object CZ-6A DEB.

Target Orbit TCA Probability of collision Miss distance Type
CZ-6A DEB LEO 2025-04-08 16:35:51 0.0001204998 136.0 (m) DEBRIS
CZ-6A DEB LEO 2025-01-30 17:34:12 0.0009000977 207.0 (m) DEBRIS
COSMOS 1140 LEO 2025-01-23 13:56:19 0.000201175 428.0 (m) PAYLOAD
COSMOS 2251 DEB LEO 2024-11-11 11:19:42 0.0002209621 944.0 (m) DEBRIS

Associated space launch

Chinese satellite reported for atmospheric/ocean/environmental/spatial parameter research purposes, details TBD.

CZ-6A DEB was lifted into orbit during the mission ‘Long March 6A | Yunhai 3’, on board a Long March 6A space rocket.

The launch took place on Nov. 11, 2022, 10:52 p.m. from Launch Complex 9A.

For more information about the launch, click the button.

Launch to space Long March 6A | Yunhai 3
Long March 6A | Yunhai 3

Agency: N/A

Status: Launch Successful

Launch date: Nov. 11, 2022, 10:52 p.m. UTC

Rocket: Long March 6A

Launch pad: Launch Complex 9A

Location: Taiyuan Satellite Launch Center, People's Republic of China

...

Latest news about this satellite

There are no fresh news available about this satellite. Check back as we update our databases every day.


Newsletter sign-up

Weekly statistics, charts and insights to help you stay on top of the space industry.